SCP
0 -0 -0 -0 -0 -0 -0 0 0 0 0 0 0 0 0 0 0 0 0 0 0 0 0 0 0 0 0 0 0 0 -0 -0
0 0 -0 -0 -0 -0 -0 0 0 0 0 0 0 0 0 0 0 0 0 0 0 0 0 0 0 0 0 0 0 0 0 -0
0 -0 -0 -0 -0 -0 -0 -0 0 0 0 0 0 0 0 0 0 0 0 0 0 0 0 0 0 0 0 0 0 -0 -0 0
0 -0 -0 0 -0 -0 -0 -0 -0 0 0 0 0 0 0 0 0 0 0 0 0 0 0 0 0 0 0 0 0 0 -0 0
0 0 -0 -0 -0 0 -0 -0 -0 0 0 0 0 0 0 0 0 0 0 0 0 0 0 0 0 0 0 0 0 0 0 0
0 0 0 -0 -0 -0 -0 -0 -0 0 0 0 0 0 0 0 0 0 0 0 0 0 0 0 0 0 0 0 0 0 0 0
0 0 0 0 0 0 0 -0 -0 -0 0 0 0 0 0 0 0 0 0 0 0 0 0 0 0 0 0 0 0 0 0 0
0 0 0 0 0 0 0 0 0 -0 0 0 0 0 0 0 -0 0 0 0 0 0 0 0 0 0 0 0 0 0 0 0
0 0 0 0 0 0 0 -0 -0 -0 -0 0 0 0 0 0 0 0 0 0 0 0 0 0 0 0 0 0 0 0 0 0
0 0 0 0 0 0 -0 -0 -0 -0 -0 0 -0 0 0 0 0 0 0 0 0 0 0 0 0 0 0 0 0 0 0 0
0 0 0 0 0 0 0 -0 -0 -0 -0 0 0 0 0 0 0 0 0 0 0 0 0 0 0 0 0 0 0 0 0 0
0 0 0 0 0 0 0 0 -0 -0 0 0 0 0 0 0 0 0 0 0 0 0 0 0 0 0 0 0 0 0 0 0
0 0 0 0 0 0 0 0 0 0 0 0 0 0 0 0 0 0 0 0 0 0 0 0 0 0 0 0 0 0 0 0
0 0 0 0 0 0 0 0 0 0 0 0 0 0 0 0 0 0 0 0 0 0 0 0 0 0 0 0 0 0 0 0
0 0 0 0 0 0 0 0 0 0 0 0 0 0 0 0 0 0 0 0 0 0 0 0 0 0 0 0 0 0 0 0
0 0 0 0 0 0 0 0 0 0 0 0 0 0 0 0 0 0 0 0 0 0 0 0 0 0 0 0 0 0 0 0
0 0 0 0 0 0 0 0 0 0 0 0 0 0 0 0 0 0 0 0 0 0 0 0 0 0 0 0 0 0 0 0
0 0 0 0 0 0 0 0 0 0 0 0 0 0 0 0 0 0 0 0 0 0 0 0 0 0 0 0 0 0 0 0
0 0 0 0 0 0 0 0 0 0 0 0 0 0 0 0 0 0 0 0 0 0 0 0 0 0 0 0 0 0 0 0
Wind_Speed_500mb
65 79 74 61 49 40 45 58 58 54 53 48 39 35 29 28 37 38 35 30 26 21 17 11 5 4 4 7 13 18 19 22
47 76 76 65 57 49 47 60 66 61 58 55 51 46 36 33 37 36 36 30 24 20 17 14 7 3 1 5 12 17 23 24
40 64 78 78 66 58 50 59 69 61 61 57 52 48 39 30 33 38 36 33 27 23 18 14 8 6 5 7 16 22 28 27
63 82 96 88 76 67 56 57 60 60 62 55 50 45 37 36 36 39 38 35 29 25 18 14 11 9 10 10 18 21 26 27
79 80 87 93 88 74 63 52 55 61 62 61 64 61 57 45 39 34 38 36 33 27 21 21 17 13 12 12 18 22 24 24
91 94 81 93 93 82 69 56 57 60 66 64 65 67 56 38 38 33 40 39 36 30 25 23 20 16 14 17 20 22 26 25
77 83 74 83 93 85 68 61 59 61 68 69 67 70 58 48 45 40 43 42 39 33 28 24 20 18 16 18 22 23 25 23
89 81 77 80 93 92 77 67 70 65 71 75 71 69 63 51 49 46 47 47 41 35 29 24 19 17 19 21 22 25 25 19
92 91 81 86 92 98 83 73 77 70 75 77 71 70 67 57 52 47 43 39 37 34 30 24 20 18 21 22 24 25 26 22
93 99 89 85 91 101 95 88 76 79 78 78 73 72 69 60 56 50 43 37 36 34 32 27 22 21 22 22 23 25 25 20
82 88 95 92 93 93 96 89 77 81 80 82 75 75 70 61 57 63 56 43 41 38 33 30 28 25 24 23 22 24 22 18
53 69 96 100 94 95 97 92 79 88 81 83 80 75 69 67 60 65 62 49 46 42 37 34 31 28 27 24 23 24 21 16
34 46 77 101 103 104 103 92 90 89 85 84 83 74 70 73 65 68 63 53 50 47 45 40 34 31 27 25 24 24 20 14
34 41 59 85 102 106 105 98 96 90 86 85 80 83 77 78 69 64 64 59 58 56 51 46 39 34 30 26 24 21 18 12
40 47 52 65 86 95 101 97 96 87 84 81 80 84 82 78 72 67 66 62 64 63 55 46 38 36 30 26 21 18 17 13
50 50 57 63 80 86 86 88 93 83 78 76 79 81 80 77 74 71 66 65 66 59 53 45 41 36 29 25 23 19 17 16
60 52 53 62 70 74 80 85 87 81 80 75 79 83 81 79 73 70 68 69 64 57 51 42 40 34 28 25 22 21 19 17
69 63 60 64 68 70 75 75 75 77 80 76 82 84 80 74 70 68 69 67 61 55 48 45 39 32 27 23 23 23 22 20
70 67 60 54 56 59 63 66 68 76 78 77 82 82 76 74 70 69 66 60 56 53 50 45 37 31 28 25 22 23 24 24
Wind_Direction_500mb
200 210 208 209 209 210 199 193 193 192 194 196 202 207 202 202 190 184 189 187 183 192 196 196 215 311 42 23 354 349 7 16
198 202 205 206 208 206 204 199 197 195 199 202 198 200 205 191 189 186 188 190 190 201 209 224 235 245 50 18 356 353 354 9
186 204 206 210 210 208 210 206 205 200 204 203 205 202 203 198 191 188 193 196 200 211 216 228 236 280 329 345 351 348 352 357
195 209 209 206 208 211 212 209 205 201 197 198 205 206 209 201 195 193 192 200 206 220 227 245 270 280 299 322 346 351 349 348
206 215 209 209 213 209 211 211 210 202 198 199 206 208 206 207 200 193 196 202 206 216 232 251 261 279 293 315 334 339 346 345
204 215 216 212 209 207 212 212 210 203 204 205 207 214 216 214 204 205 203 206 212 217 227 245 260 275 285 306 316 330 340 344
204 213 216 213 209 210 211 217 213 209 207 206 209 214 214 214 208 209 208 210 214 219 228 238 254 271 279 295 309 325 337 342
203 212 214 216 213 212 212 217 214 211 208 207 207 215 218 222 216 213 209 213 217 222 232 241 254 267 277 293 308 322 334 339
209 211 219 220 219 215 214 216 217 212 206 206 208 215 220 227 221 216 217 224 227 228 237 243 254 263 275 292 309 320 327 332
206 210 218 221 221 216 219 217 215 213 208 207 208 215 220 226 222 222 222 228 230 232 238 239 248 264 275 292 304 315 321 323
212 216 215 220 225 219 216 219 218 215 211 209 209 215 221 224 225 227 221 229 228 231 232 239 247 264 274 286 299 310 315 315
197 214 215 222 228 220 218 217 220 216 214 211 211 212 217 222 225 227 221 227 232 231 232 237 247 259 268 283 297 304 306 305
200 207 212 221 224 222 221 219 222 220 215 213 213 213 216 220 222 221 221 227 233 233 231 238 247 255 263 279 292 295 298 298
198 196 205 217 221 224 222 223 224 224 218 216 214 214 216 221 220 218 222 225 231 226 229 239 248 253 260 276 287 290 286 286
201 200 207 217 220 222 221 220 222 224 219 217 218 217 219 221 223 224 223 224 225 222 227 236 245 247 260 271 276 275 283 286
207 209 209 214 219 220 220 222 223 224 220 219 220 221 223 223 223 226 224 220 217 221 228 235 243 247 259 269 275 273 277 280
215 213 207 208 212 218 224 225 223 221 221 223 220 219 223 224 223 223 217 214 216 225 231 237 239 247 255 264 263 267 266 269
220 216 218 217 218 220 225 223 221 219 220 224 220 220 222 223 221 219 216 216 220 228 233 235 237 243 251 246 244 252 252 259
240 227 223 226 226 218 222 219 217 218 220 221 220 221 220 218 217 217 217 221 230 233 233 231 234 240 243 243 235 240 244 258
Wind_Speed_850mb
65 79 74 61 49 40 45 58 58 54 53 48 39 35 29 28 37 38 35 30 26 21 17 11 5 4 4 7 13 18 19 22
47 76 76 65 57 49 47 60 66 61 58 55 51 46 36 33 37 36 36 30 24 20 17 14 7 3 1 5 12 17 23 24
40 64 78 78 66 58 50 59 69 61 61 57 52 48 39 30 33 38 36 33 27 23 18 14 8 6 5 7 16 22 28 27
63 82 96 88 76 67 56 57 60 60 62 55 50 45 37 36 36 39 38 35 29 25 18 14 11 9 10 10 18 21 26 27
79 80 87 93 88 74 63 52 55 61 62 61 64 61 57 45 39 34 38 36 33 27 21 21 17 13 12 12 18 22 24 24
91 94 81 93 93 82 69 56 57 60 66 64 65 67 56 38 38 33 40 39 36 30 25 23 20 16 14 17 20 22 26 25
77 83 74 83 93 85 68 61 59 61 68 69 67 70 58 48 45 40 43 42 39 33 28 24 20 18 16 18 22 23 25 23
89 81 77 80 93 92 77 67 70 65 71 75 71 69 63 51 49 46 47 47 41 35 29 24 19 17 19 21 22 25 25 19
92 91 81 86 92 98 83 73 77 70 75 77 71 70 67 57 52 47 43 39 37 34 30 24 20 18 21 22 24 25 26 22
93 99 89 85 91 101 95 88 76 79 78 78 73 72 69 60 56 50 43 37 36 34 32 27 22 21 22 22 23 25 25 20
82 88 95 92 93 93 96 89 77 81 80 82 75 75 70 61 57 63 56 43 41 38 33 30 28 25 24 23 22 24 22 18
53 69 96 100 94 95 97 92 79 88 81 83 80 75 69 67 60 65 62 49 46 42 37 34 31 28 27 24 23 24 21 16
34 46 77 101 103 104 103 92 90 89 85 84 83 74 70 73 65 68 63 53 50 47 45 40 34 31 27 25 24 24 20 14
34 41 59 85 102 106 105 98 96 90 86 85 80 83 77 78 69 64 64 59 58 56 51 46 39 34 30 26 24 21 18 12
40 47 52 65 86 95 101 97 96 87 84 81 80 84 82 78 72 67 66 62 64 63 55 46 38 36 30 26 21 18 17 13
50 50 57 63 80 86 86 88 93 83 78 76 79 81 80 77 74 71 66 65 66 59 53 45 41 36 29 25 23 19 17 16
60 52 53 62 70 74 80 85 87 81 80 75 79 83 81 79 73 70 68 69 64 57 51 42 40 34 28 25 22 21 19 17
69 63 60 64 68 70 75 75 75 77 80 76 82 84 80 74 70 68 69 67 61 55 48 45 39 32 27 23 23 23 22 20
70 67 60 54 56 59 63 66 68 76 78 77 82 82 76 74 70 69 66 60 56 53 50 45 37 31 28 25 22 23 24 24
Wind_Direction_850mb
200 210 208 209 209 210 199 193 193 192 194 196 202 207 202 202 190 184 189 187 183 192 196 196 215 311 42 23 354 349 7 16
198 202 205 206 208 206 204 199 197 195 199 202 198 200 205 191 189 186 188 190 190 201 209 224 235 245 50 18 356 353 354 9
186 204 206 210 210 208 210 206 205 200 204 203 205 202 203 198 191 188 193 196 200 211 216 228 236 280 329 345 351 348 352 357
195 209 209 206 208 211 212 209 205 201 197 198 205 206 209 201 195 193 192 200 206 220 227 245 270 280 299 322 346 351 349 348
206 215 209 209 213 209 211 211 210 202 198 199 206 208 206 207 200 193 196 202 206 216 232 251 261 279 293 315 334 339 346 345
204 215 216 212 209 207 212 212 210 203 204 205 207 214 216 214 204 205 203 206 212 217 227 245 260 275 285 306 316 330 340 344
204 213 216 213 209 210 211 217 213 209 207 206 209 214 214 214 208 209 208 210 214 219 228 238 254 271 279 295 309 325 337 342
203 212 214 216 213 212 212 217 214 211 208 207 207 215 218 222 216 213 209 213 217 222 232 241 254 267 277 293 308 322 334 339
209 211 219 220 219 215 214 216 217 212 206 206 208 215 220 227 221 216 217 224 227 228 237 243 254 263 275 292 309 320 327 332
206 210 218 221 221 216 219 217 215 213 208 207 208 215 220 226 222 222 222 228 230 232 238 239 248 264 275 292 304 315 321 323
212 216 215 220 225 219 216 219 218 215 211 209 209 215 221 224 225 227 221 229 228 231 232 239 247 264 274 286 299 310 315 315
197 214 215 222 228 220 218 217 220 216 214 211 211 212 217 222 225 227 221 227 232 231 232 237 247 259 268 283 297 304 306 305
200 207 212 221 224 222 221 219 222 220 215 213 213 213 216 220 222 221 221 227 233 233 231 238 247 255 263 279 292 295 298 298
198 196 205 217 221 224 222 223 224 224 218 216 214 214 216 221 220 218 222 225 231 226 229 239 248 253 260 276 287 290 286 286
201 200 207 217 220 222 221 220 222 224 219 217 218 217 219 221 223 224 223 224 225 222 227 236 245 247 260 271 276 275 283 286
207 209 209 214 219 220 220 222 223 224 220 219 220 221 223 223 223 226 224 220 217 221 228 235 243 247 259 269 275 273 277 280
215 213 207 208 212 218 224 225 223 221 221 223 220 219 223 224 223 223 217 214 216 225 231 237 239 247 255 264 263 267 266 269
220 216 218 217 218 220 225 223 221 219 220 224 220 220 222 223 221 219 216 216 220 228 233 235 237 243 251 246 244 252 252 259
240 227 223 226 226 218 222 219 217 218 220 221 220 221 220 218 217 217 217 221 230 233 233 231 234 240 243 243 235 240 244 258